Location: Caltech
(34.1382°N, 118.1253°W)
Time: 03:30:11
(UTC-07:00)

AO-Echo - Visible Passes

Search period start: 27 April 2015 00:00
Search period end: 07 May 2015 00:00
Orbit: 693 x 813 km, 98.3° (Epoch: 26 April)

Date Brightness Start Highest point End Pass type
(mag) Time Alt. Az. Time Alt. Az. Time Alt. Az.
27 Apr ? 02:24:37 10° NNE 02:26:20 22° NNE 02:26:20 22° NNE visible
27 Apr ? 04:05:05 10° NW 04:06:17 13° NW 04:06:17 13° NW visible
28 Apr ? 01:45:30 10° NE 01:45:38 11° NE 01:45:38 11° NE visible
28 Apr ? 03:23:14 10° N 03:25:35 25° NNW 03:25:35 25° NNW visible
29 Apr ? 02:42:37 10° NNE 02:44:53 29° NNE 02:44:53 29° NNE visible
30 Apr ? 02:02:52 10° NE 02:04:11 17° NE 02:04:11 17° NE visible
30 Apr ? 03:41:50 10° NNW 03:44:08 20° NW 03:44:08 20° NW visible
01 May ? 03:00:48 10° N 03:03:26 33° N 03:03:26 33° N visible
02 May ? 02:20:37 10° NNE 02:22:44 25° NE 02:22:44 25° NE visible
02 May ? 04:00:47 10° NNW 04:02:41 15° NW 04:02:41 15° NW visible
03 May ? 01:41:39 10° NE 01:42:01 11° ENE 01:42:01 11° ENE visible
03 May ? 03:19:08 10° N 03:21:58 31° NNW 03:21:58 31° NNW visible
04 May ? 02:38:35 10° NNE 02:41:16 34° NNE 02:41:16 34° NNE visible
05 May ? 01:58:55 10° NE 02:00:34 18° NE 02:00:34 18° NE visible
05 May ? 03:37:39 10° NNW 03:40:31 24° NW 03:40:31 24° NW visible
06 May ? 02:56:42 10° N 02:59:48 40° N 02:59:48 40° N visible
